Home > Weather > Omaha > Past weeks

Flag for USA Past Weather in Omaha, Nebraska, USA — Yesterday and Last 2 Weeks

Now
77 °F

Sunny.


Feels Like: 78 °F
Forecast: 59 / 77 °F
Wind: 3 mph from Northeast

Location: Millard Airport

Current Time: Aug 25, 2016 at 6:58:38 PM

Latest Report: Aug 25, 2016 at 6:15 PM


Visibility: 10 mi

Pressure: 30.11 "Hg

Humidity: 58%

Dew Point: 61 °F

Location of OmahaLocation

Past Weather in Omaha — Graph

°F

Omaha Temperature Yesterday

Maximum temperature yesterday: 82 °F (at 1:55 PM)
Minimum temperature yesterday: 65 °F (at 11:55 PM)
Average temperature yesterday: 72 °F

High & Low Weather Summary for the Past Weeks

 TemperatureHumidityPressure
High97 °F (Aug 11, 4:55 PM)96% (Aug 15, 3:35 AM)30.15 "Hg (Aug 15, 3:35 AM)
Low56 °F (Aug 21, 4:55 AM)35% (Aug 14, 2:15 PM)29.72 "Hg (Aug 11, 7:15 PM)
Average75 °F74%29.97 "Hg
* Reported Aug 10 5:15 PM — Aug 25 5:35 PM, Omaha, Weather by CustomWeather, © 2016

Note: Actual official high and low records may vary slightly from our data, if they occured in-between our weather recording intervals... More about our weather records

Advertising

Omaha Weather History for the Previous 24 Hours

Scroll right to see more
 ConditionsComfort  
Time TempWeatherWind HumidityBarometerVisibility
5:35 PM
Thu, Aug 25
76 °FSunny.3 mph55%30.11 "Hg10 mi
5:15 PM76 °FSunny.No wind55%30.11 "Hg10 mi
4:55 PM76 °FSunny.3 mph55%30.11 "Hg10 mi
4:35 PM76 °FSunny.No wind54%30.11 "Hg10 mi
4:20 PM76 °FSunny.No wind57%30.12 "Hg10 mi
3:55 PM76 °FSunny.5 mph55%30.12 "Hg10 mi
3:15 PM76 °FSunny.3 mph62%30.13 "Hg10 mi
2:55 PM74 °FSunny.No wind64%30.13 "Hg10 mi
2:35 PM74 °FSunny.3 mph64%30.14 "Hg10 mi
2:15 PM74 °FSunny.3 mph63%30.14 "Hg10 mi
1:55 PM73 °FScattered clouds.5 mph65%30.14 "Hg10 mi
1:15 PM73 °FSunny.3 mph63%30.14 "Hg10 mi
12:55 PM72 °FSunny.No wind65%30.14 "Hg10 mi
12:15 PM70 °FSunny.No wind69%30.15 "Hg10 mi
11:55 AM70 °FSunny.5 mph69%30.15 "Hg10 mi
11:35 AM69 °FSunny.3 mph70%30.14 "Hg10 mi
11:15 AM69 °FSunny.No wind73%30.13 "Hg10 mi
10:55 AM67 °FSunny.No wind78%30.12 "Hg10 mi
10:35 AM65 °FScattered clouds.No wind84%30.12 "Hg10 mi
10:15 AM65 °FPartly sunny.No wind84%30.12 "Hg10 mi
9:55 AM64 °FScattered clouds.No wind84%30.13 "Hg10 mi
9:35 AM64 °FScattered clouds.No wind85%30.14 "Hg10 mi
9:15 AM63 °FSunny.No wind89%30.14 "Hg10 mi
8:55 AM62 °FSunny.No wind90%30.13 "Hg10 mi
8:15 AM61 °FSunny.No wind90%30.12 "Hg10 mi
7:55 AM60 °FSunny.No wind90%30.11 "Hg10 mi
7:15 AM59 °FClear.No wind92%30.10 "Hg10 mi
6:55 AM58 °FClear.No wind92%30.09 "Hg10 mi
6:15 AM58 °FClear.No wind94%30.07 "Hg10 mi
5:55 AM58 °FClear.No wind94%30.08 "Hg10 mi
5:15 AM59 °FClear.No wind93%30.08 "Hg10 mi
4:55 AM60 °FClear.No wind88%30.09 "Hg10 mi
4:15 AM60 °FPassing clouds.No wind93%30.09 "Hg10 mi
3:55 AM61 °FPassing clouds.No wind89%30.09 "Hg10 mi
3:15 AM61 °FClear.3 mph88%30.08 "Hg10 mi
2:55 AM62 °FClear.3 mph88%30.08 "Hg10 mi
2:35 AM62 °FClear.No wind90%30.08 "Hg10 mi
2:15 AM62 °FPassing clouds.5 mph88%30.08 "Hg10 mi
1:55 AM64 °FOvercast.3 mph86%30.07 "Hg10 mi
1:15 AM63 °FClear.3 mph88%30.07 "Hg10 mi
12:55 AM64 °FClear.5 mph87%30.06 "Hg10 mi
12:15 AM64 °FPassing clouds.5 mph88%30.06 "Hg10 mi
11:55 PM
Wed, Aug 24
65 °FPassing clouds.No wind85%30.06 "Hg10 mi
11:15 PM67 °FClear.No wind78%30.05 "Hg10 mi
10:55 PM68 °FPassing clouds.No wind75%30.06 "Hg10 mi
10:35 PM68 °FPassing clouds.No wind74%30.06 "Hg10 mi
10:15 PM69 °FOvercast.No wind74%30.06 "Hg10 mi
9:55 PM69 °FOvercast.5 mph76%30.07 "Hg10 mi
9:15 PM69 °FPassing clouds.6 mph77%30.06 "Hg10 mi
8:55 PM70 °FScattered clouds.7 mph78%30.06 "Hg10 mi
8:35 PM71 °FScattered clouds.No wind75%30.04 "Hg10 mi
8:15 PM71 °FScattered clouds.No wind74%30.02 "Hg10 mi
7:55 PM72 °FLight rain. Partly sunny.No wind73%30.03 "Hg10 mi
7:35 PM72 °FLight rain. Partly sunny.No wind72%30.04 "Hg10 mi
7:15 PM73 °FOvercast.5 mph71%30.03 "Hg10 mi
6:55 PM73 °FLight rain. Overcast.6 mph72%30.02 "Hg10 mi
6:35 PM74 °FOvercast.5 mph71%30.03 "Hg10 mi
6:15 PM74 °FLight rain. Overcast.5 mph72%30.03 "Hg10 mi
Weather by CustomWeather, © 2016

See weather overviewHow to use our weather pages